Find Starlink 31696

NORAD ID: 59435 Int'l Des: 2024-065 Owner: SPXS Country: US Constellation: starlink operational
LEOCIRCULAR

Current View

Loading 3D Globe...

About Starlink 31696

Starlink 31696 (NORAD 59435) is a starlink constellation satellite (v2 mini) launched Apr 7, 2024 by SPXS of US. It operates in LEO, CIRCULAR orbit with a mass of 730.00 kg.

About Starlink 31696

Description loading...

Upcoming Passes

Passes for default location (London). Set your location on the main map for personalized predictions.

Altitude History

Loading altitude history...

Two-Line Element Set

1 59435U 24065Q 26171.28209216 .00000995 00000-0 40590-4 0 9995
2 59435 53.1611 164.6578 0001399 95.2066 264.9096 15.34394152124642
Epoch: Jun 20, 2026 • Age: 24 hours

Current Status

Altitude 464.7 km
Velocity 7.64 km/s
Sub-Earth Point 35.00°N, 174.23°W
Launch Date Apr 7, 2024
Age 2.2 years
Type internet

Technical Details

Classification Payload
Mass 730.00 kg
Dry Mass 700.00 kg
Total Mass 730.00 kg
Length 0.30 m
Diameter 4.10 m
Span 29.00 m
Shape Box + pan
Manufacturer SPXS
Bus Type Starlink V2M
Phase Status In Orbit
Owner/State SPXS/US

Most Searched